Location: Chabot Space and Science Center
(37.8191°N, 122.1819°W)
Time: 15:58:07
(UTC-08:00)

ISS - Pass Details

Date: 05 December 2021
Orbit: 413 x 422 km, 51.6° (Epoch: 20 January)

Event Time Altitude Azimuth Distance (km) Brightness Sun altitude
Rises 17:20:02 0° 319° (NW) 2,385 0.3 -6.3°
Reaches altitude 10° 17:22:35 10° 338° (NNW) 1,515 -0.9 -6.7°
Maximum altitude 17:25:05 19° 25° (NNE) 1,087 -2.1 -7.2°
Drops below altitude 10° 17:27:34 10° 73° (ENE) 1,505 -1.6 -7.6°
Enters shadow 17:27:36 10° 73° (ENE) 1,515 -1.6 -7.6°
